Las Cruces, NM

7:55 AM MST on December 15, 2017 (GMT -0700)
Las Cruces International

Weather History for KLRU - January, 2013

Change the Weather History Date:

Thursday, January 10, 2013

  Actual Average Record
Temperature  
Mean Temperature 39 °F -  
Max Temperature 55 °F 53 °F 71 °F (2005)
Min Temperature 23 °F 31 °F 17 °F (2006)
Degree Days  
Heating Degree Days 26    
Moisture  
Dew Point 23 °F    
Average Humidity 45    
Maximum Humidity 77    
Minimum Humidity 30    
Precipitation  
Precipitation 0.00 in - - ()
Sea Level Pressure  
Sea Level Pressure 30.00 in    
Wind  
Wind Speed 5 mph (South)    
Max Wind Speed 18 mph    
Max Gust Speed 23 mph    
Visibility 10 miles    
Events      
Averages and records for this station are not official NWS values.
T = Trace of Precipitation, MM = Missing Value Source: NWS Daily Summary

Daily Weather History Graph

Daily Weather History Graph

Search for Another Location

Airport or City:

Trip Planner

Search our weather history database for the weather conditions in past years. The results will help you decide how hot, cold, wet, or windy it might be!

Date:

Astronomy

Jan. 10, 2013 Rise Set
Actual Time 7:09 AM MST 5:21 PM MST
Civil Twilight 6:42 AM MST 5:48 PM MST
Nautical Twilight 6:12 AM MST 6:18 PM MST
Astronomical Twilight 5:43 AM MST 6:47 PM MST
Moon 5:52 AM MST (1/10) 4:31 PM MST (1/10)
Length of Visible Light 11h 05m
Length of Day
10h 11m
Waning Crescent, 2% of the Moon is Illuminated
Jan 10
Waning Crescent
Jan 11
New
Jan 18
First Quarter
Jan 26
Full
Feb 3
Last Quarter

Hourly Weather History & Observations

Time (MST) Temp. Windchill Dew Point Humidity Pressure Visibility Wind Dir Wind Speed Gust Speed Precip Events Conditions
1:15 AM 36.7 °F 31.2 °F 16.7 °F 44% 30.09 in 10.0 mi North 6.9 mph - N/A   Clear
1:35 AM 37.6 °F 31.0 °F 17.1 °F 43% 30.09 in 10.0 mi NNW 9.2 mph - N/A   Clear
1:55 AM 38.3 °F 32.5 °F 16.5 °F 41% 30.08 in 10.0 mi North 8.1 mph - N/A   Clear
2:15 AM 36.0 °F - 16.7 °F 46% 30.08 in 10.0 mi Calm Calm - N/A   Clear
2:35 AM 38.8 °F 36.5 °F 15.6 °F 39% 30.08 in 10.0 mi NNE 3.5 mph - N/A   Clear
2:55 AM 33.1 °F 30.0 °F 17.8 °F 53% 30.08 in 10.0 mi SSW 3.5 mph - N/A   Clear
3:15 AM 31.6 °F 28.3 °F 18.3 °F 58% 30.09 in 10.0 mi WSW 3.5 mph - N/A   Clear
3:35 AM 31.5 °F 26.8 °F 18.3 °F 58% 30.08 in 10.0 mi WSW 4.6 mph - N/A   Clear
3:55 AM 31.3 °F 26.6 °F 18.0 °F 58% 30.08 in 10.0 mi WSW 4.6 mph - N/A   Clear
4:15 AM 29.1 °F 25.4 °F 18.5 °F 65% 30.07 in 10.0 mi West 3.5 mph - N/A   Clear
4:35 AM 30.0 °F - 18.5 °F 62% 30.06 in 10.0 mi Calm Calm - N/A   Clear
4:55 AM 30.7 °F - 18.1 °F 60% 30.05 in 10.0 mi Calm Calm - N/A   Clear
5:35 AM 30.6 °F 25.8 °F 17.4 °F 58% 30.05 in 10.0 mi ENE 4.6 mph - N/A   Clear
5:55 AM 28.0 °F - 17.6 °F 65% 30.06 in 10.0 mi Calm Calm - N/A   Clear
6:15 AM 25.3 °F - 17.8 °F 73% 30.06 in 10.0 mi Calm Calm - N/A   Clear
6:55 AM 23.7 °F - 17.6 °F 77% 30.07 in 10.0 mi Calm Calm - N/A   Clear
7:35 AM 26.8 °F 22.8 °F 17.8 °F 69% 30.08 in 10.0 mi East 3.5 mph - N/A   Clear
7:55 AM 33.3 °F - 18.7 °F 55% 30.08 in 10.0 mi Calm Calm - N/A   Clear
8:15 AM 35.1 °F - 17.1 °F 48% 30.09 in 10.0 mi Calm Calm - N/A   Clear
8:55 AM 39.4 °F - 18.3 °F 43% 30.10 in 10.0 mi Calm Calm - N/A   Clear
9:15 AM 42.1 °F - 16.7 °F 36% 30.10 in 10.0 mi Calm Calm - N/A   Clear
9:35 AM 42.4 °F - 16.5 °F 35% 30.10 in 10.0 mi Calm Calm - N/A   Clear
9:55 AM 43.7 °F 42.1 °F 17.2 °F 35% 30.10 in 10.0 mi South 3.5 mph - N/A   Clear
10:15 AM 44.8 °F 42.4 °F 18.1 °F 34% 30.10 in 10.0 mi South 4.6 mph - N/A   Clear
10:35 AM 46.2 °F 45.0 °F 19.0 °F 34% 30.09 in 10.0 mi SSE 3.5 mph - N/A   Clear
10:55 AM 46.6 °F - 19.6 °F 34% 30.07 in 10.0 mi SSE 4.6 mph - N/A   Clear
11:15 AM 47.5 °F - 20.3 °F 34% 30.07 in 10.0 mi SSE 3.5 mph - N/A   Clear
11:35 AM 47.3 °F - 21.4 °F 36% 30.06 in 10.0 mi South 4.6 mph - N/A   Clear
11:55 AM 48.7 °F - 21.7 °F 35% 30.03 in 10.0 mi SSE 5.8 mph - N/A   Clear
12:35 PM 48.9 °F - 23.9 °F 38% 30.02 in 10.0 mi SSW 5.8 mph - N/A   Clear
12:55 PM 48.6 °F - 23.5 °F 37% 30.00 in 10.0 mi SSE 6.9 mph - N/A   Clear
1:15 PM 48.9 °F - 25.2 °F 40% 30.00 in 10.0 mi SSE 4.6 mph - N/A   Clear
1:35 PM 50.5 °F - 26.1 °F 39% 29.99 in 10.0 mi SE 4.6 mph - N/A   Clear
1:55 PM 52.7 °F - 26.8 °F 37% 29.98 in 10.0 mi SSE 3.5 mph - N/A   Clear
2:15 PM 53.4 °F - 25.9 °F 34% 29.97 in 10.0 mi ESE 5.8 mph - N/A   Clear
2:35 PM 54.1 °F - 26.4 °F 34% 29.97 in 10.0 mi SE 5.8 mph - N/A   Clear
2:55 PM 54.7 °F - 26.6 °F 34% 29.96 in 10.0 mi SE 6.9 mph - N/A   Clear
3:15 PM 55.6 °F - 27.1 °F 34% 29.95 in 10.0 mi SSE 8.1 mph - N/A   Clear
3:35 PM 55.8 °F - 27.5 °F 34% 29.95 in 10.0 mi SSW 4.6 mph - N/A   Clear
3:55 PM 55.0 °F - 27.9 °F 35% 29.95 in 10.0 mi South 6.9 mph - N/A   Clear
4:15 PM 54.7 °F - 28.2 °F 36% 29.94 in 10.0 mi South 8.1 mph - N/A   Clear
4:35 PM 55.0 °F - 28.2 °F 36% 29.93 in 10.0 mi South 8.1 mph - N/A   Clear
4:55 PM 53.2 °F - 28.2 °F 38% 29.92 in 10.0 mi SSE 5.8 mph - N/A   Clear
5:15 PM 51.3 °F - 28.9 °F 42% 29.92 in 10.0 mi SSE 5.8 mph - N/A   Clear
5:35 PM 49.3 °F - 29.3 °F 46% 29.92 in 10.0 mi South 8.1 mph - N/A   Clear
5:55 PM 48.0 °F - 28.8 °F 47% 29.91 in 10.0 mi South 5.8 mph - N/A   Clear
6:15 PM 47.3 °F - 28.9 °F 49% 29.91 in 10.0 mi SSE 6.9 mph - N/A   Clear
6:35 PM 44.8 °F 42.4 °F 28.9 °F 54% 29.91 in 10.0 mi South 4.6 mph - N/A   Clear
6:55 PM 44.6 °F - 28.8 °F 54% 29.92 in 10.0 mi Calm Calm - N/A   Clear
7:15 PM 43.9 °F 38.8 °F 30.0 °F 58% 29.92 in 10.0 mi South 9.2 mph - N/A   Clear
7:55 PM 44.8 °F 39.9 °F 31.5 °F 60% 29.92 in 10.0 mi South 9.2 mph - N/A   Clear
8:15 PM 44.6 °F 39.7 °F 31.6 °F 60% 29.92 in 10.0 mi South 9.2 mph - N/A   Clear
8:35 PM 43.9 °F 39.3 °F 31.3 °F 61% 29.91 in 10.0 mi SSE 8.1 mph - N/A   Clear
8:55 PM 44.4 °F 40.5 °F 31.1 °F 60% 29.91 in 10.0 mi South 6.9 mph - N/A   Clear
9:15 PM 43.0 °F 40.3 °F 30.7 °F 62% 29.90 in 10.0 mi SSE 4.6 mph - N/A   Clear
9:35 PM 51.8 °F - 21.9 °F 31% 29.90 in 10.0 mi SW 16.1 mph - N/A   Clear
9:55 PM 52.2 °F - 21.6 °F 30% 29.91 in 10.0 mi SW 17.3 mph - N/A   Clear
10:15 PM 51.8 °F - 21.7 °F 31% 29.89 in 10.0 mi SW 17.3 mph - N/A   Clear
10:35 PM 51.1 °F - 21.9 °F 32% 29.88 in 10.0 mi SSW 15.0 mph - N/A   Clear
10:55 PM 51.4 °F - 22.3 °F 32% 29.88 in 10.0 mi SSW 12.7 mph 18.4 mph N/A   Clear
11:15 PM 50.2 °F - 23.0 °F 35% 29.87 in 10.0 mi SSW 13.8 mph - N/A   Clear
11:35 PM 50.5 °F - 23.4 °F 35% 29.87 in 10.0 mi SSW 18.4 mph - N/A   Clear
11:55 PM 51.1 °F - 22.8 °F 33% 29.87 in 10.0 mi SSW 16.1 mph 23.0 mph N/A   Clear